• In France
  • List of Countries
  • For 7 days
  • Water Temperature
  • Satellite Maps
  • Weather Map
  • Weather Widgets
  • user-avatar
    Login

    Hourly Weather Tarin Kowt

    Today, 17 January, Wednesday

    Time Temperature Precipitation Wind Pressure Humidity
    00:00 +2°C° 0 mm 2 mps 611 mmHg 30%
    01:00 +1°C° 0 mm 2 mps 612 mmHg 32%
    02:00 +1°C° 0 mm 2 mps 612 mmHg 34%
    03:00 -1°C° 0 mm 2 mps 612 mmHg 36%
    04:00 0°C° 0 mm 1 mps 612 mmHg 38%
    05:00 0°C° 0 mm 1 mps 612 mmHg 39%
    06:00 0°C° 0 mm 1 mps 613 mmHg 40%
    07:00 -1°C° 0 mm 1 mps 613 mmHg 42%
    08:00 +1°C° 0 mm 1 mps 614 mmHg 36%
    09:00 +3°C° 0 mm 1 mps 615 mmHg 31%
    10:00 +4°C° 0 mm 1 mps 616 mmHg 26%
    11:00 +5°C° 0 mm 1 mps 616 mmHg 24%
    12:00 +5°C° 0 mm 2 mps 615 mmHg 21%
    13:00 +6°C° 0 mm 2 mps 615 mmHg 19%
    14:00 +6°C° 0 mm 2 mps 615 mmHg 19%
    15:00 +6°C° 0 mm 2 mps 615 mmHg 18%
    16:00 +6°C° 0 mm 2 mps 615 mmHg 18%
    17:00 +6°C° 0 mm 1 mps 615 mmHg 21%
    18:00 +5°C° 0 mm 1 mps 615 mmHg 24%
    19:00 +3°C° 0 mm 1 mps 615 mmHg 27%
    20:00 +3°C° 0 mm 1 mps 616 mmHg 27%
    21:00 +3°C° 0 mm 1 mps 616 mmHg 27%
    22:00 +3°C° 0 mm 1 mps 616 mmHg 28%
    23:00 +3°C° 0 mm 1 mps 616 mmHg 27%

    Tomorrow, 18 January, Thursday

    Time Temperature Precipitation Wind Pressure Humidity
    00:00 +3°C° 0 mm 1 mps 616 mmHg 27%
    01:00 +3°C° 0 mm 1 mps 616 mmHg 27%
    02:00 +2°C° 0 mm 2 mps 616 mmHg 26%
    03:00 +1°C° 0 mm 2 mps 616 mmHg 25%
    04:00 +1°C° 0 mm 2 mps 615 mmHg 25%
    05:00 +1°C° 0 mm 2 mps 616 mmHg 24%
    06:00 +1°C° 0 mm 2 mps 616 mmHg 23%
    07:00 0°C° 0 mm 3 mps 616 mmHg 23%
    08:00 +2°C° 0 mm 3 mps 617 mmHg 19%
    09:00 +6°C° 0 mm 2 mps 617 mmHg 16%
    10:00 +8°C° 0 mm 2 mps 618 mmHg 13%
    11:00 +9°C° 0 mm 3 mps 618 mmHg 12%
    12:00 +10°C° 0 mm 3 mps 618 mmHg 11%
    13:00 +11°C° 0 mm 3 mps 617 mmHg 9%
    14:00 +11°C° 0 mm 3 mps 617 mmHg 10%
    15:00 +11°C° 0 mm 3 mps 617 mmHg 11%
    16:00 +11°C° 0 mm 3 mps 617 mmHg 11%
    17:00 +9°C° 0 mm 2 mps 616 mmHg 13%
    18:00 +7°C° 0 mm 2 mps 616 mmHg 14%
    19:00 +6°C° 0 mm 2 mps 616 mmHg 16%
    20:00 +6°C° 0 mm 2 mps 616 mmHg 16%
    21:00 +5°C° 0 mm 2 mps 616 mmHg 17%
    22:00 +5°C° 0 mm 2 mps 616 mmHg 17%
    23:00 +4°C° 0 mm 2 mps 616 mmHg 18%

    Day after tomorrow, 19 January, Friday

    Time Temperature Precipitation Wind Pressure Humidity
    00:00 +4°C° 0 mm 2 mps 616 mmHg 18%
    01:00 +4°C° 0 mm 2 mps 616 mmHg 19%
    02:00 +4°C° 0 mm 2 mps 616 mmHg 19%
    03:00 +3°C° 0 mm 2 mps 616 mmHg 20%
    04:00 +3°C° 0 mm 2 mps 616 mmHg 20%
    05:00 +3°C° 0 mm 2 mps 616 mmHg 21%
    06:00 +3°C° 0 mm 2 mps 617 mmHg 22%
    07:00 +3°C° 0 mm 2 mps 617 mmHg 23%
    08:00 +5°C° 0 mm 2 mps 618 mmHg 20%
    09:00 +7°C° 0 mm 2 mps 619 mmHg 18%
    10:00 +9°C° 0 mm 2 mps 620 mmHg 16%
    11:00 +10°C° 0 mm 2 mps 620 mmHg 17%
    12:00 +11°C° 0 mm 1 mps 620 mmHg 19%
    13:00 +12°C° 0 mm 1 mps 620 mmHg 20%
    14:00 +12°C° 0 mm 1 mps 619 mmHg 21%
    15:00 +12°C° 0 mm 1 mps 619 mmHg 22%
    16:00 +12°C° 0 mm 1 mps 619 mmHg 23%
    17:00 +10°C° 0 mm 1 mps 619 mmHg 26%
    18:00 +9°C° 0 mm 1 mps 619 mmHg 29%
    19:00 +8°C° 0 mm 1 mps 619 mmHg 32%
    20:00 +7°C° 0 mm 1 mps 619 mmHg 32%
    21:00 +7°C° 0 mm 1 mps 619 mmHg 33%
    22:00 +6°C° 0 mm 1 mps 619 mmHg 34%
    23:00 +5°C° 0 mm 2 mps 619 mmHg 34%

    20 January, Saturday

    Time Temperature Precipitation Wind Pressure Humidity
    00:00 +5°C° 0 mm 2 mps 618 mmHg 35%
    01:00 +4°C° 0 mm 2 mps 618 mmHg 35%
    02:00 +4°C° 0 mm 2 mps 618 mmHg 35%
    03:00 +4°C° 0 mm 2 mps 617 mmHg 36%
    04:00 +3°C° 0 mm 2 mps 617 mmHg 36%
    05:00 +3°C° 0 mm 2 mps 617 mmHg 36%
    06:00 +3°C° 0 mm 2 mps 617 mmHg 36%
    07:00 +3°C° 0 mm 2 mps 617 mmHg 36%
    08:00 +5°C° 0 mm 2 mps 618 mmHg 31%
    09:00 +7°C° 0 mm 2 mps 619 mmHg 26%
    10:00 +10°C° 0 mm 2 mps 620 mmHg 20%
    11:00 +12°C° 0 mm 1 mps 619 mmHg 19%
    12:00 +13°C° 0 mm 1 mps 619 mmHg 17%
    13:00 +13°C° 0 mm 1 mps 618 mmHg 15%
    14:00 +13°C° 0 mm 1 mps 618 mmHg 15%
    15:00 +13°C° 0 mm 1 mps 618 mmHg 16%
    16:00 +14°C° 0 mm 1 mps 617 mmHg 16%
    17:00 +11°C° 0 mm 0 mps 617 mmHg 19%
    18:00 +9°C° 0 mm 0 mps 616 mmHg 21%
    19:00 +7°C° 0 mm 0 mps 616 mmHg 24%
    20:00 +6°C° 0 mm 0 mps 616 mmHg 25%
    21:00 +5°C° 0 mm 0 mps 615 mmHg 25%
    22:00 +5°C° 0 mm 0 mps 615 mmHg 26%
    23:00 +5°C° 0 mm 0 mps 615 mmHg 26%

    21 January, Sunday

    Time Temperature Precipitation Wind Pressure Humidity
    00:00 +5°C° 0 mm 1 mps 614 mmHg 26%
    01:00 +5°C° 0 mm 1 mps 614 mmHg 26%
    02:00 +5°C° 0 mm 1 mps 614 mmHg 26%
    03:00 +4°C° 0 mm 1 mps 613 mmHg 26%
    04:00 +4°C° 0 mm 1 mps 613 mmHg 26%
    05:00 +4°C° 0 mm 1 mps 613 mmHg 26%
    06:00 +4°C° 0 mm 1 mps 613 mmHg 26%
    07:00 +4°C° 0 mm 1 mps 613 mmHg 26%
    08:00 +6°C° 0 mm 1 mps 615 mmHg 22%
    09:00 +9°C° 0 mm 1 mps 616 mmHg 18%
    10:00 +11°C° 0 mm 1 mps 617 mmHg 15%
    11:00 +12°C° 0 mm 1 mps 616 mmHg 14%
    12:00 +13°C° 0 mm 1 mps 616 mmHg 13%
    13:00 +13°C° 0 mm 1 mps 615 mmHg 13%
    14:00 +13°C° 0 mm 1 mps 615 mmHg 13%
    15:00 +13°C° 0 mm 1 mps 615 mmHg 13%
    16:00 +13°C° 0 mm 1 mps 615 mmHg 13%
    17:00 +12°C° 0 mm 1 mps 614 mmHg 15%
    18:00 +10°C° 0 mm 1 mps 613 mmHg 17%
    19:00 +8°C° 0 mm 1 mps 613 mmHg 19%
    20:00 +8°C° 0 mm 1 mps 613 mmHg 19%
    21:00 +7°C° 0 mm 1 mps 613 mmHg 19%
    22:00 +6°C° 0 mm 2 mps 613 mmHg 19%
    23:00 +6°C° 0 mm 2 mps 612 mmHg 19%

    22 January, Monday

    Time Temperature Precipitation Wind Pressure Humidity
    00:00 +5°C° 0 mm 2 mps 612 mmHg 18%
    01:00 +5°C° 0 mm 2 mps 612 mmHg 18%
    02:00 +5°C° 0 mm 2 mps 611 mmHg 18%
    03:00 +4°C° 0 mm 2 mps 611 mmHg 18%
    04:00 +3°C° 0 mm 3 mps 611 mmHg 17%
    05:00 +3°C° 0 mm 3 mps 611 mmHg 17%
    06:00 +3°C° 0 mm 3 mps 611 mmHg 17%
    07:00 +2°C° 0 mm 3 mps 611 mmHg 17%
    08:00 +5°C° 0 mm 3 mps 612 mmHg 15%
    09:00 +8°C° 0 mm 3 mps 613 mmHg 13%
    10:00 +10°C° 0 mm 3 mps 614 mmHg 11%
    11:00 +11°C° 0 mm 3 mps 614 mmHg 10%
    12:00 +13°C° 0 mm 2 mps 614 mmHg 10%
    13:00 +14°C° 0 mm 2 mps 613 mmHg 9%
    14:00 +14°C° 0 mm 2 mps 613 mmHg 10%
    15:00 +13°C° 0 mm 2 mps 613 mmHg 10%
    16:00 +13°C° 0 mm 2 mps 613 mmHg 10%
    17:00 +12°C° 0 mm 2 mps 612 mmHg 12%
    18:00 +9°C° 0 mm 2 mps 612 mmHg 14%
    19:00 +8°C° 0 mm 2 mps 612 mmHg 15%
    20:00 +8°C° 0 mm 2 mps 612 mmHg 16%
    21:00 +7°C° 0 mm 2 mps 612 mmHg 16%
    22:00 +7°C° 0 mm 2 mps 612 mmHg 17%
    23:00 +6°C° 0 mm 2 mps 611 mmHg 17%
    Show more